FW6908 Weather Reports


time (UTC)temp
F
wind
direction
speed
knots
gust
knots
rain 1hr
in
rain 24hr
in
rain mn
in
humidity
%
barometer
mb
20220930162045 79 232 2.6 6.1 0.00 0.00 0.00 47 1018.9
20220930161545 79 277 4.3 7.0 0.00 0.00 0.00 46 1018.9
20220930161045 79 261 3.5 7.0 0.00 0.00 0.00 46 1018.8
20220930160545 80 255 4.3 7.0 0.00 0.00 0.00 46 1018.8
20220930160045 80 258 5.2 6.1 0.00 0.00 0.00 45 1018.9
20220930155546 80 248 2.6 7.0 0.00 0.00 0.00 44 1018.9
20220930155043 80 267 4.3 7.0 0.00 0.00 0.00 42 1018.8
20220930154549 81 266 3.5 6.1 0.00 0.00 0.00 41 1018.8
20220930154043 81 289 3.5 6.1 0.00 0.00 0.00 41 1018.7
20220930153542 81 281 3.5 7.0 0.00 0.00 0.00 40 1018.7
20220930153057 81 248 4.3 7.0 0.00 0.00 0.00 40 1018.7
20220930152541 81 244 5.2 8.7 0.00 0.00 0.00 39 1018.6
20220930152041 81 248 6.1 8.7 0.00 0.00 0.00 38 1018.6
20220930151545 82 298 5.2 7.0 0.00 0.00 0.00 38 1018.5
20220930151039 82 283 4.3 7.0 0.00 0.00 0.00 38 1018.5
20220930150540 82 242 3.5 7.8 0.00 0.00 0.00 37 1018.5
20220930150038 82 211 4.3 9.6 0.00 0.00 0.00 37 1018.4
20220930145538 82 254 6.1 9.6 0.00 0.00 0.00 37 1018.4
20220930145042 82 248 6.1 9.6 0.00 0.00 0.00 37 1018.3
20220930144536 82 265 6.1 9.6 0.00 0.00 0.00 38 1018.4
20220930144036 82 279 5.2 9.6 0.00 0.00 0.00 38 1018.4
20220930143536 82 270 6.1 9.6 0.00 0.00 0.00 38 1018.2
20220930143035 83 265 4.3 7.8 0.00 0.00 0.00 39 1018.2
20220930142536 83 216 5.2 10.4 0.00 0.00 0.00 38 1018.1
20220930142034 82 238 7.0 10.4 0.00 0.00 0.00 39 1018.1
20220930141534 82 269 7.8 11.3 0.00 0.00 0.00 38 1018.1
20220930141036 82 249 7.8 11.3 0.00 0.00 0.00 36 1018.0
20220930140532 83 241 7.0 10.4 0.00 0.00 0.00 36 1018.0
20220930140032 83 246 7.0 10.4 0.00 0.00 0.00 38 1017.9
20220930135530 82 244 6.1 11.3 0.00 0.00 0.00 40 1017.8
20220930135029 82 236 8.7 11.3 0.00 0.00 0.00 39 1017.7
20220930134534 82 223 7.0 12.2 0.00 0.00 0.00 40 1017.8
20220930134028 82 263 7.8 12.2 0.00 0.00 0.00 41 1017.7
20220930133528 83 259 7.8 12.2 0.00 0.00 0.00 40 1017.6
20220930133028 83 245 6.1 12.2 0.00 0.00 0.00 39 1017.6
20220930132527 83 250 6.1 15.6 0.00 0.00 0.00 40 1017.6
20220930132030 83 212 8.7 14.8 0.00 0.00 0.00 39 1017.5
20220930131526 84 286 7.0 12.2 0.00 0.00 0.00 37 1017.5
20220930131025 84 269 7.8 12.2 0.00 0.00 0.00 34 1017.5
20220930130528 84 242 7.8 11.3 0.00 0.00 0.00 35 1017.4
20220930130024 84 246 7.8 10.4 0.00 0.00 0.00 35 1017.4
20220930125523 84 228 7.0 11.3 0.00 0.00 0.00 34 1017.3
20220930125022 84 269 7.0 10.4 0.00 0.00 0.00 35 1017.3
20220930124521 85 222 7.0 10.4 0.00 0.00 0.00 34 1017.4
20220930124025 85 274 6.1 9.6 0.00 0.00 0.00 33 1017.3
20220930123523 85 182 6.1 7.8 0.00 0.00 0.00 33 1017.2
20220930123020 85 221 3.5 9.6 0.00 0.00 0.00 33 1017.2
20220930122519 85 270 4.3 7.8 0.00 0.00 0.00 33 1017.1
20220930122019 85 251 5.2 7.8 0.00 0.00 0.00 33 1017.1
20220930121514 85 221 5.2 8.7 0.00 0.00 0.00 32 1017.0
20220930121013 85 204 4.3 8.7 0.00 0.00 0.00 32 1017.1
20220930120511 85 250 5.2 9.6 0.00 0.00 0.00 34 1017.2
20220930120011 84 204 3.5 7.8 0.00 0.00 0.00 35 1017.0
20220930115510 85 223 4.3 8.7 0.00 0.00 0.00 34 1017.2
20220930115009 84 186 7.0 10.4 0.00 0.00 0.00 34 1017.1
20220930114513 84 205 7.0 9.6 0.00 0.00 0.00 34 1017.2
20220930114009 85 257 5.2 9.6 0.00 0.00 0.00 35 1017.1
20220930113509 85 195 5.2 10.4 0.00 0.00 0.00 35 1017.1
20220930113008 84 194 6.1 10.4 0.00 0.00 0.00 35 1017.2
20220930112511 85 235 7.0 11.3 0.00 0.00 0.00 36 1017.2
20220930112007 85 227 6.1 11.3 0.00 0.00 0.00 36 1017.2
20220930111515 85 202 7.8 13.0 0.00 0.00 0.00 37 1017.2
20220930111007 85 197 5.2 10.4 0.00 0.00 0.00 39 1017.2
20220930110506 84 204 6.1 12.2 0.00 0.00 0.00 39 1017.1
20220930110005 84 224 7.0 12.2 0.00 0.00 0.00 39 1017.1
20220930105505 84 239 7.8 11.3 0.00 0.00 0.00 38 1017.0
20220930105005 85 221 4.3 10.4 0.00 0.00 0.00 36 1017.0
20220930104506 85 235 4.3 7.8 0.00 0.00 0.00 34 1017.0
20220930104004 85 214 4.3 7.8 0.00 0.00 0.00 34 1017.0
20220930103502 84 297 4.3 8.7 0.00 0.00 0.00 34 1017.1
20220930103002 84 265 6.1 8.7 0.00 0.00 0.00 35 1017.0
20220930102501 84 261 5.2 7.8 0.00 0.00 0.00 35 1017.0
20220930102002 84 278 5.2 7.8 0.00 0.00 0.00 36 1017.0
20220930101501 84 259 5.2 7.8 0.00 0.00 0.00 37 1017.0
20220930101000 84 253 6.1 7.8 0.00 0.00 0.00 34 1017.1
20220930100600 84 255 3.5 7.0 0.00 0.00 0.00 34 1017.0
20220930100058 84 243 4.3 6.1 0.00 0.00 0.00 32 1017.1
20220930095558 84 134 0.9 6.1 0.00 0.00 0.00 33 1017.0
20220930095102 84 287 2.6 6.1 0.00 0.00 0.00 33 1017.0
20220930094649 83 227 3.5 7.0 0.00 0.00 0.00 33 1017.0
20220930094056 84 212 3.5 7.0 0.00 0.00 0.00 34 1017.0
20220930093555 83 161 1.7 6.1 0.00 0.00 0.00 35 1016.9
20220930093125 83 259 3.5 6.1 0.00 0.00 0.00 34 1017.0
20220930092603 83 289 1.7 6.1 0.00 0.00 0.00 34 1017.0
20220930092051 82 296 2.6 6.1 0.00 0.00 0.00 36 1017.0
20220930091551 82 278 3.5 7.0 0.00 0.00 0.00 37 1017.2
20220930091050 82 254 3.5 7.0 0.00 0.00 0.00 39 1017.2
20220930090546 82 294 2.6 7.8 0.00 0.00 0.00 40 1017.2
20220930090045 82 242 4.3 7.8 0.00 0.00 0.00 38 1017.2
20220930085544 82 191 3.5 7.0 0.00 0.00 0.00 39 1017.1
20220930085045 81 250 1.7 5.2 0.00 0.00 0.00 41 1017.1
20220930084544 81 192 2.6 5.2 0.00 0.00 0.00 40 1017.1
20220930084041 80 200 0.9 4.3 0.00 0.00 0.00 43 1017.2
20220930083540 81 288 2.6 4.3 0.00 0.00 0.00 42 1017.1
20220930083103 81 217 1.7 5.2 0.00 0.00 0.00 44 1017.1
20220930082538 81 211 0.0 3.5 0.00 0.00 0.00 42 1017.1
20220930082045 80 283 0.9 5.2 0.00 0.00 0.00 43 1017.0
20220930081528 80 208 2.6 5.2 0.00 0.00 0.00 43 1017.0
20220930081026 80 180 0.0 4.3 0.00 0.00 0.00 43 1017.0
20220930080526 79 300 2.6 4.3 0.00 0.00 0.00 43 1016.9
20220930080029 79 229 0.9 3.5 0.00 0.00 0.00 45 1016.9
20220930075522 79 255 1.7 3.5 0.00 0.00 0.00 45 1016.9
20220930075021 79 225 0.0 3.5 0.00 0.00 0.00 45 1016.8
20220930074525 78 252 0.9 3.5 0.00 0.00 0.00 45 1016.8
20220930074023 78 309 0.9 3.5 0.00 0.00 0.00 48 1016.8
20220930073516 78 360 0.9 3.5 0.00 0.00 0.00 50 1016.6
20220930073015 77 29 0.0 3.5 0.00 0.00 0.00 51 1016.6
20220930072514 77 342 1.7 3.5 0.00 0.00 0.00 52 1016.5
20220930072022 76 355 1.7 3.5 0.00 0.00 0.00 53 1016.4
20220930071511 76 328 1.7 3.5 0.00 0.00 0.00 54 1016.5
20220930071009 76 249 0.9 3.5 0.00 0.00 0.00 57 1016.4
20220930070510 76 261 0.9 3.5 0.00 0.00 0.00 58 1016.4
20220930070012 75 116 0.0 2.6 0.00 0.00 0.00 60 1016.4
20220930065506 75 132 0.9 2.6 0.00 0.00 0.00 60 1016.4
20220930065005 75 67 0.0 2.6 0.00 0.00 0.00 60 1016.3
20220930064503 74 61 0.0 2.6 0.00 0.00 0.00 61 1016.3
20220930064001 74 40 0.0 1.7 0.00 0.00 0.00 61 1016.3
20220930063600 74 18 0.0 2.6 0.00 0.00 0.00 63 1016.3
20220930063058 72 17 0.9 3.5 0.00 0.00 0.00 66 1016.2
20220930062557 71 360 1.7 3.5 0.00 0.00 0.00 68 1016.1
20220930062101 71 347 1.7 3.5 0.00 0.00 0.00 70 1016.1
20220930061554 70 9 0.9 3.5 0.00 0.00 0.00 71 1016.2
20220930061056 70 355 0.9 4.3 0.00 0.00 0.00 71 1016.1
20220930060551 69 5 2.6 4.3 0.00 0.00 0.00 72 1016.1
20220930060132 69 348 0.0 3.5 0.00 0.00 0.00 73 1016.1
20220930055548 68 345 0.9 3.5 0.00 0.00 0.00 73 1016.1
20220930055100 67 17 0.0 1.7 0.00 0.00 0.00 74 1016.0
20220930054551 67 11 0.0 2.6 0.00 0.00 0.00 75 1016.0
20220930054043 66 355 0.0 3.5 0.00 0.00 0.00 75 1016.0
20220930053543 66 5 1.7 4.3 0.00 0.00 0.00 75 1015.9
20220930053041 66 11 2.6 4.3 0.00 0.00 0.00 75 1015.9
20220930052540 66 61 2.6 5.2 0.00 0.00 0.00 77 1015.8
20220930052042 65 57 2.6 4.3 0.00 0.00 0.00 78 1015.8
20220930051538 64 61 1.7 4.3 0.00 0.00 0.00 79 1015.8
20220930051036 64 40 1.7 4.3 0.00 0.00 0.00 80 1015.8
20220930050534 64 17 0.9 3.5 0.00 0.00 0.00 80 1015.8
20220930050033 64 60 0.9 4.3 0.00 0.00 0.00 81 1015.7
20220930045533 64 46 2.6 5.2 0.00 0.00 0.00 81 1015.6
20220930045032 63 71 2.6 5.2 0.00 0.00 0.00 81 1015.7
20220930044541 63 35 2.6 4.3 0.00 0.00 0.00 81 1015.7
20220930044029 63 36 0.9 4.3 0.00 0.00 0.00 81 1015.7
20220930043528 63 56 1.7 5.2 0.00 0.00 0.00 81 1015.7
20220930043030 63 29 1.7 5.2 0.00 0.00 0.00 82 1015.7
20220930042527 63 61 1.7 8.7 0.00 0.00 0.00 81 1015.7
20220930042027 63 25 4.3 8.7 0.00 0.00 0.00 81 1015.6
20220930041534 63 37 1.7 5.2 0.00 0.00 0.00 82 1015.6
20220930041024 64 17 0.0 3.5 0.00 0.00 0.00 82 1015.5
20220930040524 64 360 0.9 3.5 0.00 0.00 0.00 83 1015.5
20220930040024 64 52 1.7 3.5 0.00 0.00 0.00 83 1015.4
20220930035524 64 5 1.7 4.3 0.00 0.00 0.00 83 1015.4
20220930035024 63 50 1.7 4.3 0.00 0.00 0.00 83 1015.4
20220930034530 63 9 0.0 4.3 0.00 0.00 0.00 83 1015.4
20220930034029 63 57 1.7 5.2 0.00 0.00 0.00 83 1015.4
20220930033522 63 31 3.5 5.2 0.00 0.00 0.00 83 1015.5
20220930033021 64 14 1.7 3.5 0.00 0.00 0.00 83 1015.5
20220930032521 64 52 0.0 4.3 0.00 0.00 0.00 83 1015.4
20220930032021 64 55 1.7 5.2 0.00 0.00 0.00 83 1015.3
20220930031522 64 32 3.5 5.2 0.00 0.00 0.00 83 1015.2
20220930031018 65 40 0.9 3.5 0.00 0.00 0.00 84 1015.1
20220930030529 65 19 0.9 4.3 0.00 0.00 0.00 84 1015.2
20220930030022 65 78 1.7 4.3 0.00 0.00 0.00 84 1015.2
20220930025518 65 86 1.7 5.2 0.00 0.00 0.00 84 1015.2
20220930025016 65 59 3.5 5.2 0.00 0.00 0.00 84 1015.2
20220930024530 65 66 2.6 4.3 0.00 0.00 0.00 84 1015.2
20220930024014 65 40 2.6 4.3 0.00 0.00 0.00 84 1015.2
20220930023513 66 355 0.9 2.6 0.00 0.00 0.00 84 1015.2
20220930023015 66 55 0.0 1.7 0.00 0.00 0.00 84 1015.0
20220930022515 66 59 0.0 2.6 0.00 0.00 0.00 84 1015.0
20220930022015 66 60 0.0 3.5 0.00 0.00 0.00 84 1015.0
20220930021514 66 35 0.9 3.5 0.00 0.00 0.00 84 1015.1
20220930021011 66 70 1.7 4.3 0.00 0.00 0.00 84 1015.1
20220930020510 66 69 2.6 4.3 0.00 0.00 0.00 84 1015.1
20220930020034 66 57 0.9 3.5 0.00 0.00 0.00 84 1015.0
20220930015509 66 57 0.9 5.2 0.00 0.00 0.00 84 1015.0
20220930015009 67 40 2.6 5.2 0.00 0.00 0.00 84 1014.9
20220930014511 67 29 4.3 5.2 0.00 0.00 0.00 83 1014.9
20220930014007 67 24 1.7 3.5 0.00 0.00 0.00 83 1014.8
20220930013508 67 67 0.0 0.0 0.00 0.00 0.00 83 1014.9
20220930013006 67 67 0.0 0.0 0.00 0.00 0.00 83 1014.8
20220930012505 67 67 0.0 3.5 0.00 0.00 0.00 83 1014.9
20220930012005 67 68 0.9 3.5 0.00 0.00 0.00 83 1014.9
20220930011505 67 63 1.7 4.3 0.00 0.00 0.00 83 1014.8
20220930011007 67 71 2.6 5.2 0.00 0.00 0.00 82 1014.7
20220930010503 68 51 3.5 5.2 0.00 0.00 0.00 82 1014.8
20220930010011 68 42 3.5 4.3 0.00 0.00 0.00 82 1014.7
20220930005501 68 50 1.7 5.2 0.00 0.00 0.00 82 1014.8
20220930005001 68 55 2.6 5.2 0.00 0.00 0.00 81 1014.7
20220930004621 68 44 3.5 4.3 0.00 0.00 0.00 81 1014.6
20220930004059 68 48 1.7 3.5 0.00 0.00 0.00 80 1014.6
20220930003559 68 49 2.6 3.5 0.00 0.00 0.00 80 1014.5
20220930003104 69 69 0.9 3.5 0.00 0.00 0.00 80 1014.5
20220930002558 69 69 0.9 2.6 0.00 0.00 0.00 80 1014.5
20220930002100 69 71 0.9 2.6 0.00 0.00 0.00 80 1014.5
20220930001557 69 71 0.9 2.6 0.00 0.00 0.00 81 1014.3
20220930001056 69 73 0.9 2.6 0.00 0.00 0.00 81 1014.3
20220930000556 70 74 0.0 2.6 0.00 0.00 0.00 81 1014.2
20220930000054 70 74 0.0 2.6 0.00 0.00 0.00 82 1014.3
20220929235553 70 74 0.9 3.5 0.00 0.00 0.00 82 1014.2
20220929235054 70 73 1.7 3.5 0.00 0.00 0.00 82 1014.2
20220929234559 70 52 1.7 3.5 0.00 0.00 0.00 82 1014.2
20220929234053 70 46 1.7 3.5 0.00 0.00 0.00 82 1014.2
20220929233554 70 54 0.9 2.6 0.00 0.00 0.00 81 1014.1
20220929233057 70 55 0.9 3.5 0.00 0.00 0.00 82 1014.0
20220929232600 70 56 1.7 5.2 0.00 0.00 0.00 82 1014.1
20220929232052 70 54 3.5 5.2 0.00 0.00 0.00 82 1014.1
20220929231559 70 49 2.6 3.5 0.00 0.00 0.00 81 1014.0
20220929231053 70 56 1.7 3.5 0.00 0.00 0.00 82 1014.1
20220929230550 70 57 0.9 2.6 0.00 0.00 0.00 82 1014.0
20220929230126 70 58 1.7 2.6 0.00 0.00 0.00 82 1014.0
20220929225551 70 58 1.7 2.6 0.00 0.00 0.00 82 1014.0
20220929225049 70 61 1.7 3.5 0.00 0.00 0.00 82 1014.0
20220929224549 70 61 0.9 4.3 0.00 0.00 0.00 82 1014.0
20220929224049 70 49 1.7 4.3 0.00 0.00 0.00 82 1014.1
20220929223549 70 53 2.6 4.3 0.00 0.00 0.00 82 1014.1
20220929223053 70 49 0.9 5.2 0.00 0.00 0.00 81 1014.1
20220929222547 70 57 2.6 5.2 0.00 0.00 0.00 81 1014.0
20220929222047 70 49 2.6 4.3 0.00 0.00 0.00 81 1014.0
20220929221603 70 44 2.6 4.3 0.00 0.00 0.00 81 1014.0
20220929221045 71 49 2.6 4.3 0.00 0.00 0.00 80 1014.0
20220929220545 71 49 1.7 3.5 0.00 0.00 0.00 80 1013.9
20220929220050 71 49 0.0 0.0 0.00 0.00 0.00 80 1013.9
20220929215543 71 51 0.0 3.5 0.00 0.00 0.00 80 1013.9
20220929215051 71 51 0.0 4.3 0.00 0.00 0.00 80 1013.9
20220929214555 72 53 1.7 4.3 0.00 0.00 0.00 80 1013.9
20220929214040 72 48 1.7 2.6 0.00 0.00 0.00 80 1013.9
20220929213541 72 20 1.7 2.6 0.00 0.00 0.00 80 1013.8
20220929213058 72 21 0.9 2.6 0.00 0.00 0.00 80 1013.8
20220929212539 72 18 1.7 3.5 0.00 0.00 0.00 79 1013.7
20220929212038 72 20 1.7 3.5 0.00 0.00 0.00 79 1013.7
20220929211550 72 20 0.9 2.6 0.00 0.00 0.00 79 1013.7
20220929211035 73 64 1.7 3.5 0.00 0.00 0.00 80 1013.6
20220929210534 73 45 1.7 3.5 0.00 0.00 0.00 79 1013.6
20220929210037 73 330 0.0 2.6 0.00 0.00 0.00 79 1013.5
20220929205536 73 338 0.9 3.5 0.00 0.00 0.00 79 1013.5
20220929205032 73 276 1.7 3.5 0.00 0.00 0.00 80 1013.5
20220929204605 73 261 1.7 2.6 0.00 0.00 0.00 79 1013.4
20220929204133 73 289 0.9 2.6 0.00 0.00 0.00 79 1013.4
20220929203531 73 21 0.9 1.7 0.00 0.00 0.00 79 1013.3
20220929203030 73 26 0.0 2.6 0.00 0.00 0.00 78 1013.3
20220929202529 73 32 0.9 3.5 0.00 0.00 0.00 78 1013.1
20220929202028 73 15 1.7 3.5 0.00 0.00 0.00 77 1013.2
20220929201528 74 338 0.0 2.6 0.00 0.00 0.00 77 1013.1
20220929201034 74 192 0.0 1.7 0.00 0.00 0.00 77 1013.1
20220929200527 74 94 0.0 2.6 0.00 0.00 0.00 77 1013.1
20220929200027 74 94 0.0 3.5 0.00 0.00 0.00 76 1013.1
20220929195526 74 86 1.7 3.5 0.00 0.00 0.00 76 1013.1
20220929195028 74 62 0.9 2.6 0.00 0.00 0.00 76 1013.2
20220929194555 74 22 0.0 3.5 0.00 0.00 0.00 76 1013.1
20220929194026 74 17 1.7 3.5 0.00 0.00 0.00 76 1013.1
20220929193530 75 288 0.9 3.5 0.00 0.00 0.00 76 1013.1
20220929193026 75 281 0.9 5.2 0.00 0.00 0.00 76 1013.1
20220929192529 75 295 1.7 5.2 0.00 0.00 0.00 75 1013.0
20220929192025 75 279 2.6 5.2 0.00 0.00 0.00 75 1013.1
20220929191529 75 284 1.7 5.2 0.00 0.00 0.00 75 1013.1
20220929191027 75 280 1.7 5.2 0.00 0.00 0.00 74 1013.0
20220929190524 75 281 2.6 4.3 0.00 0.00 0.00 74 1013.0
20220929190039 75 263 2.6 5.2 0.00 0.00 0.00 74 1012.9
20220929185527 75 257 2.6 3.5 0.00 0.00 0.00 73 1012.9
20220929185026 76 267 0.9 3.5 0.00 0.00 0.00 73 1012.9
20220929184528 76 261 1.7 4.3 0.00 0.00 0.00 73 1012.9
20220929184023 76 255 1.7 3.5 0.00 0.00 0.00 73 1012.9
20220929183523 76 201 1.7 6.1 0.00 0.00 0.00 72 1012.9
20220929183023 76 209 3.5 6.1 0.00 0.00 0.00 72 1012.7
20220929182522 76 242 1.7 6.1 0.00 0.00 0.00 72 1012.8
20220929182022 76 259 1.7 6.1 0.00 0.00 0.00 72 1012.8
20220929181523 76 263 2.6 6.1 0.00 0.00 0.00 71 1012.7
20220929181022 76 263 2.6 8.7 0.00 0.00 0.00 71 1012.6
20220929180520 76 209 5.2 8.7 0.00 0.00 0.00 71 1012.4
20220929180020 76 225 4.3 8.7 0.00 0.00 0.00 71 1012.5
20220929175529 76 221 4.3 8.7 0.00 0.00 0.00 71 1012.3
20220929175121 76 223 3.5 9.6 0.00 0.00 0.00 70 1012.3
20220929174531 76 248 5.2 9.6 0.00 0.00 0.00 70 1012.3
20220929174022 76 225 5.2 11.3 0.00 0.00 0.00 69 1012.2
20220929173522 77 213 5.2 11.3 0.00 0.00 0.00 68 1012.2
20220929173035 77 255 5.2 8.7 0.00 0.00 0.00 67 1012.2
20220929172525 77 226 3.5 7.8 0.00 0.00 0.00 67 1012.1
20220929172020 77 254 6.1 7.8 0.00 0.00 0.00 66 1012.0
20220929171537 77 239 4.3 8.7 0.00 0.00 0.00 65 1012.1
20220929171017 77 248 4.3 7.8 0.00 0.00 0.00 64 1012.1
20220929170516 78 239 3.5 7.8 0.00 0.00 0.00 63 1012.0
20220929170023 78 234 3.5 8.7 0.00 0.00 0.00 61 1012.0
20220929165515 78 219 6.1 9.6 0.00 0.00 0.00 60 1012.0
20220929165015 78 225 7.0 9.6 0.00 0.00 0.00 59 1012.0
20220929164526 79 198 6.1 9.6 0.00 0.00 0.00 58 1011.9
20220929164016 79 234 3.5 9.6 0.00 0.00 0.00 57 1011.9
20220929163519 79 216 5.2 8.7 0.00 0.00 0.00 57 1011.8
20220929163015 79 196 4.3 7.8 0.00 0.00 0.00 57 1011.8